| time (UTC) | temp F | wind direction | speed knots | gust knots | rain 1hr in | rain 24hr in | rain mn in | humidity % | barometer mb |
| 20260506211516 | 71 | 286 | 3.5 | 7.0 | 0.00 | 0.00 | 0.00 | 66 | 1019.2 |
| 20260506210518 | 70 | 295 | 2.6 | 7.0 | 0.00 | 0.00 | 0.00 | 67 | 1019.3 |
| 20260506205517 | 70 | 289 | 2.6 | 7.8 | 0.00 | 0.00 | 0.00 | 68 | 1019.3 |
| 20260506204618 | 69 | 296 | 3.5 | 6.1 | 0.00 | 0.00 | 0.00 | 68 | 1019.4 |
| 20260506203516 | 69 | 292 | 3.5 | 11.3 | 0.00 | 0.00 | 0.00 | 68 | 1019.4 |
| 20260506202537 | 69 | 280 | 3.5 | 7.8 | 0.00 | 0.00 | 0.00 | 68 | 1019.4 |
| 20260506201537 | 69 | 281 | 3.5 | 7.0 | 0.00 | 0.00 | 0.00 | 68 | 1019.5 |
| 20260506200517 | 70 | 281 | 3.5 | 10.4 | 0.00 | 0.00 | 0.00 | 68 | 1019.5 |
| 20260506195515 | 70 | 282 | 2.6 | 6.1 | 0.00 | 0.00 | 0.00 | 68 | 1019.6 |
| 20260506194516 | 70 | 300 | 2.6 | 5.2 | 0.00 | 0.00 | 0.00 | 67 | 1019.5 |
| 20260506193516 | 69 | 275 | 2.6 | 7.0 | 0.00 | 0.00 | 0.00 | 68 | 1019.6 |
| 20260506192517 | 69 | 277 | 3.5 | 7.8 | 0.00 | 0.00 | 0.00 | 69 | 1019.7 |
| 20260506191516 | 68 | 278 | 2.6 | 6.1 | 0.00 | 0.00 | 0.00 | 69 | 1019.8 |
| 20260506190516 | 68 | 267 | 2.6 | 5.2 | 0.00 | 0.00 | 0.00 | 69 | 1019.8 |
| 20260506185516 | 68 | 268 | 3.5 | 7.0 | 0.00 | 0.00 | 0.00 | 69 | 1019.9 |
| 20260506184516 | 68 | 285 | 1.7 | 6.1 | 0.00 | 0.00 | 0.00 | 70 | 1019.9 |
| 20260506183518 | 68 | 273 | 2.6 | 5.2 | 0.00 | 0.00 | 0.00 | 70 | 1020.0 |
| 20260506182517 | 69 | 250 | 1.7 | 6.1 | 0.00 | 0.00 | 0.00 | 69 | 1020.1 |
| 20260506181517 | 68 | 265 | 1.7 | 6.1 | 0.00 | 0.00 | 0.00 | 69 | 1020.1 |
| 20260506180517 | 68 | 220 | 2.6 | 7.0 | 0.00 | 0.00 | 0.00 | 69 | 1020.2 |
| 20260506175517 | 67 | 270 | 1.7 | 5.2 | 0.00 | 0.00 | 0.00 | 68 | 1020.3 |
| 20260506174518 | 67 | 207 | 2.6 | 5.2 | 0.00 | 0.00 | 0.00 | 69 | 1020.3 |
| 20260506173517 | 66 | 270 | 1.7 | 5.2 | 0.00 | 0.00 | 0.00 | 70 | 1020.3 |
| 20260506172518 | 66 | 267 | 1.7 | 4.3 | 0.00 | 0.00 | 0.00 | 71 | 1020.4 |
| 20260506171518 | 65 | 197 | 2.6 | 5.2 | 0.00 | 0.00 | 0.00 | 73 | 1020.4 |
| 20260506170519 | 65 | 260 | 1.7 | 4.3 | 0.00 | 0.00 | 0.00 | 73 | 1020.4 |
| 20260506165515 | 66 | 208 | 1.7 | 5.2 | 0.00 | 0.00 | 0.00 | 73 | 1020.3 |
| 20260506164516 | 66 | 218 | 1.7 | 3.5 | 0.00 | 0.00 | 0.00 | 73 | 1020.3 |
| 20260506163518 | 66 | 245 | 0.9 | 3.5 | 0.00 | 0.00 | 0.00 | 72 | 1020.2 |
| 20260506162516 | 66 | 265 | 0.9 | 2.6 | 0.00 | 0.00 | 0.00 | 73 | 1020.3 |
| 20260506161536 | 66 | 209 | 0.9 | 4.3 | 0.00 | 0.00 | 0.00 | 72 | 1020.4 |
| 20260506160517 | 66 | 231 | 0.9 | 2.6 | 0.00 | 0.00 | 0.00 | 70 | 1020.4 |
| 20260506155516 | 65 | 292 | 0.0 | 2.6 | 0.00 | 0.00 | 0.00 | 72 | 1020.4 |
| 20260506154516 | 63 | 341 | 0.0 | 2.6 | 0.00 | 0.00 | 0.00 | 76 | 1020.5 |
| 20260506153517 | 63 | 199 | 0.9 | 3.5 | 0.00 | 0.00 | 0.00 | 76 | 1020.5 |
| 20260506152517 | 62 | 196 | 0.9 | 2.6 | 0.00 | 0.00 | 0.00 | 77 | 1020.7 |
| 20260506151518 | 60 | 321 | 0.0 | 1.7 | 0.00 | 0.00 | 0.00 | 79 | 1020.7 |
| 20260506150516 | 59 | 317 | 0.9 | 2.6 | 0.00 | 0.00 | 0.00 | 82 | 1020.7 |
| 20260506145517 | 57 | 1 | 0.9 | 2.6 | 0.00 | 0.00 | 0.00 | 86 | 1020.8 |
| 20260506144518 | 55 | 34 | 0.9 | 2.6 | 0.00 | 0.00 | 0.00 | 91 | 1020.7 |
| 20260506143539 | 53 | 331 | 0.9 | 3.5 | 0.00 | 0.00 | 0.00 | 94 | 1020.6 |
| 20260506142521 | 52 | 41 | 0.9 | 2.6 | 0.00 | 0.00 | 0.00 | 96 | 1020.5 |
| 20260506141518 | 50 | 165 | 0.0 | 0.9 | 0.00 | 0.00 | 0.00 | 97 | 1020.5 |
| 20260506140538 | 48 | 32 | 0.9 | 1.7 | 0.00 | 0.00 | 0.00 | 97 | 1020.4 |
| 20260506135518 | 47 | 102 | 0.9 | 2.6 | 0.00 | 0.00 | 0.00 | 97 | 1020.2 |
| 20260506134518 | 47 | 124 | 0.9 | 2.6 | 0.00 | 0.00 | 0.00 | 96 | 1020.3 |
| 20260506133516 | 46 | 144 | 0.9 | 1.7 | 0.00 | 0.00 | 0.00 | 96 | 1020.3 |
| 20260506132515 | 46 | 177 | 0.9 | 1.7 | 0.00 | 0.00 | 0.00 | 96 | 1020.1 |
| 20260506131515 | 47 | 181 | 0.9 | 1.7 | 0.00 | 0.00 | 0.00 | 96 | 1020.0 |
| 20260506130516 | 47 | 163 | 0.9 | 1.7 | 0.00 | 0.00 | 0.00 | 96 | 1019.8 |
| 20260506125516 | 47 | 165 | 0.9 | 1.7 | 0.00 | 0.00 | 0.00 | 96 | 1019.7 |
| 20260506124516 | 47 | 173 | 0.9 | 2.6 | 0.00 | 0.00 | 0.00 | 96 | 1019.6 |
| 20260506123516 | 47 | 158 | 0.9 | 3.5 | 0.00 | 0.00 | 0.00 | 96 | 1019.6 |
| 20260506122518 | 47 | 167 | 0.9 | 2.6 | 0.00 | 0.00 | 0.00 | 96 | 1019.7 |
| 20260506121517 | 47 | 97 | 0.0 | 1.7 | 0.00 | 0.00 | 0.00 | 96 | 1019.7 |
| 20260506120517 | 47 | 168 | 0.0 | 1.7 | 0.00 | 0.00 | 0.00 | 96 | 1019.8 |
| 20260506115517 | 47 | 116 | 0.0 | 1.7 | 0.00 | 0.00 | 0.00 | 96 | 1019.8 |
| 20260506114519 | 47 | 185 | 0.9 | 2.6 | 0.00 | 0.00 | 0.00 | 96 | 1019.8 |
| 20260506113517 | 47 | 168 | 0.9 | 2.6 | 0.00 | 0.00 | 0.00 | 96 | 1019.9 |
| 20260506112519 | 48 | 168 | 0.9 | 2.6 | 0.00 | 0.00 | 0.00 | 96 | 1019.8 |
| 20260506111517 | 48 | 180 | 0.9 | 1.7 | 0.00 | 0.00 | 0.00 | 96 | 1019.8 |
| 20260506110518 | 47 | 161 | 0.9 | 1.7 | 0.00 | 0.00 | 0.00 | 95 | 1019.8 |
| 20260506105518 | 47 | 182 | 0.9 | 1.7 | 0.00 | 0.00 | 0.00 | 95 | 1019.8 |
| 20260506104515 | 48 | 147 | 0.0 | 1.7 | 0.00 | 0.00 | 0.00 | 95 | 1019.8 |
| 20260506103515 | 48 | 181 | 1.7 | 2.6 | 0.00 | 0.00 | 0.00 | 95 | 1019.7 |
| 20260506102516 | 49 | 185 | 0.9 | 1.7 | 0.00 | 0.00 | 0.00 | 95 | 1019.7 |
| 20260506101515 | 49 | 179 | 0.9 | 2.6 | 0.00 | 0.00 | 0.00 | 95 | 1019.7 |
| 20260506100516 | 49 | 162 | 0.0 | 1.7 | 0.00 | 0.00 | 0.00 | 95 | 1019.7 |
| 20260506095516 | 49 | 160 | 0.9 | 1.7 | 0.00 | 0.00 | 0.00 | 94 | 1019.6 |
| 20260506094516 | 49 | 182 | 0.0 | 1.7 | 0.00 | 0.00 | 0.00 | 94 | 1019.6 |
| 20260506093518 | 50 | 171 | 0.9 | 1.7 | 0.00 | 0.00 | 0.00 | 94 | 1019.7 |
| 20260506092520 | 50 | 212 | 0.0 | 0.9 | 0.00 | 0.00 | 0.00 | 94 | 1019.7 |
| 20260506091518 | 50 | 168 | 1.7 | 2.6 | 0.00 | 0.00 | 0.00 | 94 | 1019.7 |
| 20260506090517 | 51 | 38 | 0.9 | 2.6 | 0.00 | 0.00 | 0.00 | 94 | 1019.8 |
| 20260506085517 | 51 | 121 | 0.0 | 1.7 | 0.00 | 0.00 | 0.00 | 94 | 1019.9 |
| 20260506084539 | 51 | 52 | 0.9 | 1.7 | 0.00 | 0.00 | 0.00 | 94 | 1020.0 |
| 20260506083517 | 51 | 71 | 0.9 | 2.6 | 0.00 | 0.00 | 0.00 | 94 | 1020.0 |
| 20260506082519 | 51 | 35 | 0.9 | 1.7 | 0.00 | 0.00 | 0.00 | 93 | 1020.1 |
| 20260506081518 | 51 | 10 | 0.9 | 2.6 | 0.00 | 0.00 | 0.00 | 93 | 1020.1 |
| 20260506080537 | 51 | 186 | 0.0 | 1.7 | 0.00 | 0.00 | 0.00 | 93 | 1020.0 |
| 20260506073518 | 53 | 182 | 0.0 | 0.9 | 0.00 | 0.00 | 0.00 | 92 | 1019.9 |
| 20260506072516 | 53 | 176 | 0.0 | 1.7 | 0.00 | 0.00 | 0.00 | 91 | 1019.8 |
| 20260506071515 | 54 | 124 | 0.0 | 1.7 | 0.00 | 0.00 | 0.00 | 91 | 1019.8 |
| 20260506070516 | 54 | 140 | 0.0 | 1.7 | 0.00 | 0.00 | 0.00 | 91 | 1019.7 |
| 20260506062516 | 55 | 68 | 0.9 | 2.6 | 0.00 | 0.00 | 0.00 | 89 | 1019.5 |
| 20260506061516 | 55 | 37 | 0.0 | 2.6 | 0.00 | 0.00 | 0.00 | 89 | 1019.5 |
| 20260506060537 | 55 | 118 | 0.0 | 2.6 | 0.00 | 0.00 | 0.00 | 88 | 1019.4 |
| 20260506050518 | 56 | 352 | 1.7 | 4.3 | 0.00 | 0.00 | 0.00 | 87 | 1019.0 |
| 20260506044518 | 56 | 25 | 0.9 | 3.5 | 0.00 | 0.00 | 0.00 | 86 | 1018.9 |
| 20260506043540 | 56 | 354 | 0.9 | 4.3 | 0.00 | 0.00 | 0.00 | 86 | 1018.8 |
| 20260506042517 | 57 | 10 | 0.9 | 3.5 | 0.00 | 0.00 | 0.00 | 85 | 1018.8 |
| 20260506041518 | 57 | 357 | 0.9 | 4.3 | 0.00 | 0.00 | 0.00 | 84 | 1018.6 |
| 20260506040517 | 57 | 343 | 0.9 | 2.6 | 0.00 | 0.00 | 0.00 | 83 | 1018.5 |
| 20260506035516 | 58 | 333 | 1.7 | 4.3 | 0.00 | 0.00 | 0.00 | 82 | 1018.4 |
| 20260506034515 | 58 | 328 | 1.7 | 3.5 | 0.00 | 0.00 | 0.00 | 81 | 1018.2 |
| 20260506033516 | 58 | 327 | 1.7 | 4.3 | 0.00 | 0.00 | 0.00 | 81 | 1018.1 |
| 20260506032517 | 58 | 326 | 1.7 | 4.3 | 0.00 | 0.00 | 0.00 | 80 | 1018.0 |
| 20260506031516 | 59 | 329 | 0.9 | 3.5 | 0.00 | 0.00 | 0.00 | 79 | 1017.8 |
| 20260506030517 | 59 | 325 | 1.7 | 4.3 | 0.00 | 0.00 | 0.00 | 78 | 1017.6 |
| 20260506025517 | 59 | 335 | 1.7 | 7.0 | 0.00 | 0.00 | 0.00 | 77 | 1017.4 |
| 20260506024517 | 60 | 336 | 2.6 | 5.2 | 0.00 | 0.00 | 0.00 | 76 | 1017.3 |
| 20260506023517 | 60 | 334 | 1.7 | 3.5 | 0.00 | 0.00 | 0.00 | 75 | 1017.1 |
| 20260506022518 | 61 | 339 | 3.5 | 7.8 | 0.00 | 0.00 | 0.00 | 73 | 1017.1 |
| 20260506021517 | 62 | 339 | 4.3 | 7.8 | 0.00 | 0.00 | 0.00 | 71 | 1017.0 |
| 20260506020518 | 62 | 347 | 3.5 | 7.8 | 0.00 | 0.00 | 0.00 | 69 | 1016.9 |
| 20260506015518 | 63 | 344 | 3.5 | 7.0 | 0.00 | 0.00 | 0.00 | 67 | 1016.8 |
| 20260506014523 | 64 | 341 | 3.5 | 7.0 | 0.00 | 0.00 | 0.00 | 66 | 1016.7 |
| 20260506013517 | 64 | 335 | 3.5 | 7.8 | 0.00 | 0.00 | 0.00 | 65 | 1016.7 |
| 20260506012517 | 65 | 332 | 4.3 | 9.6 | 0.00 | 0.00 | 0.00 | 64 | 1016.6 |
| 20260506011515 | 66 | 315 | 1.7 | 5.2 | 0.00 | 0.00 | 0.00 | 66 | 1016.7 |
| 20260506010516 | 66 | 269 | 2.6 | 5.2 | 0.00 | 0.00 | 0.00 | 68 | 1016.7 |
| 20260506005517 | 66 | 278 | 2.6 | 6.1 | 0.00 | 0.00 | 0.00 | 68 | 1016.7 |
| 20260506004516 | 67 | 284 | 2.6 | 7.0 | 0.00 | 0.00 | 0.00 | 68 | 1016.7 |
| 20260506003516 | 67 | 287 | 2.6 | 6.1 | 0.00 | 0.00 | 0.00 | 67 | 1016.6 |
| 20260506002516 | 67 | 267 | 2.6 | 6.1 | 0.00 | 0.00 | 0.00 | 68 | 1016.6 |
| 20260506001517 | 67 | 286 | 2.6 | 6.1 | 0.00 | 0.00 | 0.00 | 68 | 1016.6 |
| 20260506000517 | 66 | 265 | 2.6 | 5.2 | 0.00 | 0.00 | 0.00 | 69 | 1016.5 |
| 20260505235517 | 66 | 266 | 3.5 | 7.8 | 0.00 | 0.00 | 0.00 | 70 | 1016.5 |
| 20260505234517 | 67 | 262 | 2.6 | 6.1 | 0.00 | 0.00 | 0.00 | 69 | 1016.5 |
| 20260505233517 | 66 | 260 | 2.6 | 7.8 | 0.00 | 0.00 | 0.00 | 69 | 1016.7 |
| 20260505232538 | 65 | 269 | 3.5 | 7.0 | 0.00 | 0.00 | 0.00 | 71 | 1016.7 |
| 20260505231518 | 66 | 273 | 2.6 | 7.8 | 0.00 | 0.00 | 0.00 | 71 | 1016.6 |
| 20260505230538 | 67 | 280 | 3.5 | 7.0 | 0.00 | 0.00 | 0.00 | 68 | 1016.7 |
| 20260505225518 | 67 | 268 | 2.6 | 6.1 | 0.00 | 0.00 | 0.00 | 67 | 1016.8 |
| 20260505224518 | 66 | 265 | 2.6 | 6.1 | 0.00 | 0.00 | 0.00 | 69 | 1016.9 |
| 20260505223518 | 67 | 291 | 2.6 | 5.2 | 0.00 | 0.00 | 0.00 | 66 | 1017.0 |
| 20260505222537 | 68 | 286 | 2.6 | 7.0 | 0.00 | 0.00 | 0.00 | 67 | 1017.0 |
| 20260505221519 | 68 | 275 | 2.6 | 6.1 | 0.00 | 0.00 | 0.00 | 65 | 1017.1 |
| 20260505220516 | 67 | 285 | 2.6 | 7.0 | 0.00 | 0.00 | 0.00 | 66 | 1017.1 |
| 20260505215516 | 66 | 268 | 2.6 | 5.2 | 0.00 | 0.00 | 0.00 | 67 | 1017.2 |
| 20260505214516 | 66 | 294 | 3.5 | 7.0 | 0.00 | 0.00 | 0.00 | 66 | 1017.4 |
| 20260505213536 | 65 | 278 | 2.6 | 5.2 | 0.00 | 0.00 | 0.00 | 69 | 1017.5 |
| 20260505212557 | 65 | 272 | 2.6 | 6.1 | 0.00 | 0.00 | 0.00 | 69 | 1017.5 |